FW3684 Weather Reports


time (UTC)temp
C
wind
direction
speed
KPH
gust
KPH
rain 1hr
cm
rain 24hr
cm
rain mn
cm
humidity
%
barometer
mb
20260508194552 20 243 3.2 12.9 0.00 0.00 0.00 49 1016.4
20260508194056 20 247 4.8 12.9 0.00 0.00 0.00 50 1016.3
20260508193551 19 231 1.6 14.5 0.00 0.00 0.00 47 1016.3
20260508192549 19 308 1.6 17.7 0.00 0.00 0.00 49 1016.4
20260508192048 19 281 6.4 19.3 0.00 0.00 0.00 46 1016.6
20260508191548 19 220 8.0 20.9 0.00 0.00 0.00 47 1016.6
20260508191048 19 293 4.8 20.9 0.00 0.00 0.00 49 1016.6
20260508190549 19 293 4.8 20.9 0.00 0.00 0.00 47 1016.6
20260508190055 20 274 8.0 12.9 0.00 0.00 0.00 49 1016.6
20260508185547 20 224 1.6 11.3 0.00 0.00 0.00 50 1016.8
20260508185047 20 234 3.2 14.5 0.00 0.00 0.00 48 1016.8
20260508184601 20 212 4.8 16.1 0.00 0.00 0.00 51 1016.7
20260508184047 19 242 4.8 22.5 0.00 0.00 0.00 51 1016.8
20260508183548 18 269 11.3 17.7 0.00 0.00 0.00 49 1016.9
20260508182549 18 297 8.0 20.9 0.00 0.00 0.00 47 1016.8
20260508182048 18 263 11.3 20.9 0.00 0.00 0.00 50 1016.9
20260508181600 19 252 14.5 20.9 0.00 0.00 0.00 47 1017.1
20260508181049 19 282 6.4 19.3 0.00 0.00 0.00 47 1017.2
20260508180549 19 268 6.4 17.7 0.00 0.00 0.00 43 1017.3
20260508180048 20 230 6.4 17.7 0.00 0.00 0.00 41 1017.4
20260508175547 20 256 4.8 17.7 0.00 0.00 0.00 45 1017.2
20260508175048 20 210 1.6 12.9 0.00 0.00 0.00 41 1017.2
20260508174547 20 278 3.2 11.3 0.00 0.00 0.00 41 1017.4
20260508174046 20 86 0.0 8.0 0.00 0.00 0.00 42 1017.4
20260508173547 19 225 1.6 11.3 0.00 0.00 0.00 38 1017.6
20260508172544 19 24 4.8 8.0 0.00 0.00 0.00 36 1017.5
20260508172044 18 218 1.6 11.3 0.00 0.00 0.00 42 1017.6
20260508171543 17 142 4.8 12.9 0.00 0.00 0.00 40 1017.6
20260508171047 17 271 3.2 16.1 0.00 0.00 0.00 45 1017.8
20260508170542 17 271 8.0 19.3 0.00 0.00 0.00 42 1017.9
20260508170042 18 266 9.7 19.3 0.00 0.00 0.00 41 1017.9
20260508165540 19 115 3.2 11.3 0.00 0.00 0.00 43 1018.1
20260508165039 18 97 3.2 9.7 0.00 0.00 0.00 43 1018.1
20260508164549 18 236 1.6 19.3 0.00 0.00 0.00 44 1018.3
20260508164039 18 264 3.2 19.3 0.00 0.00 0.00 44 1018.3
20260508163542 18 266 1.6 11.3 0.00 0.00 0.00 43 1018.4
20260508162538 19 174 1.6 8.0 0.00 0.00 0.00 45 1018.4
20260508162035 18 70 0.0 8.0 0.00 0.00 0.00 48 1018.5
20260508161538 18 215 3.2 8.0 0.00 0.00 0.00 54 1018.6
20260508161035 17 274 1.6 9.7 0.00 0.00 0.00 49 1018.7
20260508160532 17 131 1.6 19.3 0.00 0.00 0.00 52 1018.7
20260508160033 17 127 8.0 19.3 0.00 0.00 0.00 53 1018.9
20260508155533 17 236 0.0 9.7 0.00 0.00 0.00 49 1018.9
20260508155032 17 242 1.6 12.9 0.00 0.00 0.00 52 1019.1
20260508154533 16 326 1.6 8.0 0.00 0.00 0.00 50 1019.2
20260508154031 16 290 3.2 9.7 0.00 0.00 0.00 49 1019.2
20260508153530 16 252 4.8 14.5 0.00 0.00 0.00 52 1019.2
20260508152530 16 262 8.0 14.5 0.00 0.00 0.00 51 1019.3
20260508152029 15 345 3.2 12.9 0.00 0.00 0.00 52 1019.3
20260508151530 16 273 6.4 12.9 0.00 0.00 0.00 50 1019.2
20260508151031 15 264 1.6 9.7 0.00 0.00 0.00 50 1019.3
20260508150529 15 160 3.2 17.7 0.00 0.00 0.00 51 1019.3
20260508150033 16 283 8.0 17.7 0.00 0.00 0.00 51 1019.3
20260508145527 16 228 6.4 17.7 0.00 0.00 0.00 51 1019.3
20260508145027 16 278 4.8 11.3 0.00 0.00 0.00 52 1019.3
20260508144545 16 199 4.8 8.0 0.00 0.00 0.00 50 1019.4
20260508144027 16 198 0.0 6.4 0.00 0.00 0.00 53 1019.4
20260508143527 16 276 0.0 8.0 0.00 0.00 0.00 51 1019.5
20260508142528 15 255 0.0 4.8 0.00 0.00 0.00 51 1019.5
20260508142025 15 275 0.0 8.0 0.00 0.00 0.00 48 1019.6
20260508141525 15 255 3.2 8.0 0.00 0.00 0.00 52 1019.5
20260508141023 15 172 1.6 6.4 0.00 0.00 0.00 56 1019.5
20260508140523 14 75 0.0 4.8 0.00 0.00 0.00 55 1019.6
20260508140022 14 238 1.6 8.0 0.00 0.00 0.00 60 1019.6
20260508135522 13 214 4.8 8.0 0.00 0.00 0.00 58 1019.6
20260508135019 13 238 0.0 4.8 0.00 0.00 0.00 62 1019.6
20260508134526 13 243 0.0 3.2 0.00 0.00 0.00 63 1019.5
20260508134016 13 192 0.0 8.0 0.00 0.00 0.00 63 1019.5
20260508133519 12 218 1.6 11.3 0.00 0.00 0.00 70 1019.6
20260508132515 12 255 4.8 9.7 0.00 0.00 0.00 73 1019.5
20260508132015 11 267 3.2 6.4 0.00 0.00 0.00 73 1019.4
20260508131515 11 217 1.6 4.8 0.00 0.00 0.00 76 1019.6
20260508131014 11 221 1.6 4.8 0.00 0.00 0.00 77 1019.6
20260508130513 11 231 1.6 3.2 0.00 0.00 0.00 77 1019.6
20260508130013 10 271 0.0 3.2 0.00 0.00 0.00 77 1019.6
20260508125513 10 266 0.0 3.2 0.00 0.00 0.00 79 1019.5
20260508125012 10 236 0.0 3.2 0.00 0.00 0.00 79 1019.7
20260508124513 10 23 0.0 4.8 0.00 0.00 0.00 80 1019.6
20260508124012 9 33 3.2 6.4 0.00 0.00 0.00 82 1019.6
20260508123514 8 71 0.0 6.4 0.00 0.00 0.00 85 1019.6
20260508122511 7 136 0.0 0.0 0.00 0.00 0.00 89 1019.5
20260508122012 7 72 0.0 0.0 0.00 0.00 0.00 90 1019.5
20260508121512 7 73 0.0 0.0 0.00 0.00 0.00 91 1019.4
20260508121013 7 73 0.0 0.0 0.00 0.00 0.00 92 1019.5
20260508120511 7 79 0.0 0.0 0.00 0.15 0.00 92 1019.4
20260508120010 7 75 0.0 0.0 0.00 0.15 0.00 93 1019.4
20260508115510 7 75 0.0 0.0 0.00 0.15 0.00 94 1019.4
20260508115010 6 77 0.0 0.0 0.00 0.15 0.00 96 1019.3
20260508114510 6 77 0.0 0.0 0.00 0.15 0.00 97 1019.3
20260508114011 6 77 0.0 0.0 0.00 0.15 0.00 97 1019.3
20260508113513 6 77 0.0 0.0 0.00 0.15 0.00 97 1019.2
20260508112509 5 78 0.0 0.0 0.00 0.15 0.00 97 1018.9
20260508112006 4 82 0.0 0.0 0.00 0.15 0.00 97 1018.8
20260508111506 4 39 0.0 0.0 0.00 0.15 0.00 97 1018.6
20260508111009 4 37 0.0 0.0 0.00 0.15 0.00 97 1018.5
20260508110504 4 41 0.0 0.0 0.00 0.28 0.00 96 1018.6
20260508110008 4 77 0.0 0.0 0.00 0.28 0.00 96 1018.5
20260508105503 4 78 0.0 0.0 0.00 0.28 0.00 96 1018.4
20260508105002 4 65 0.0 0.0 0.00 0.28 0.00 97 1018.3
20260508104500 4 65 0.0 0.0 0.00 0.28 0.00 96 1018.2
20260508104000 4 66 0.0 0.0 0.00 0.28 0.00 96 1018.1
20260508103604 4 70 0.0 0.0 0.00 0.28 0.00 96 1018.1
20260508103203 4 60 0.0 0.0 0.00 0.28 0.00 96 1017.8
20260508102559 4 58 0.0 0.0 0.00 0.28 0.00 96 1017.8
20260508102059 4 80 0.0 0.0 0.00 0.28 0.00 96 1017.7
20260508101615 5 44 0.0 0.0 0.00 0.28 0.00 96 1017.6
20260508101058 5 27 0.0 0.0 0.00 0.28 0.00 96 1017.5
20260508100556 5 41 0.0 0.0 0.00 0.28 0.00 96 1017.4
20260508100056 5 49 0.0 0.0 0.00 0.28 0.00 96 1017.4
20260508095556 5 72 0.0 0.0 0.00 0.28 0.00 96 1017.3
20260508095054 5 76 0.0 0.0 0.00 0.28 0.00 96 1017.3
20260508094553 5 60 0.0 0.0 0.00 0.28 0.00 96 1017.2
20260508094052 5 60 0.0 0.0 0.00 0.28 0.00 96 1017.2
20260508093555 5 65 0.0 0.0 0.00 0.28 0.00 96 1017.2
20260508093152 5 72 0.0 1.6 0.00 0.28 0.00 95 1017.1
20260508092551 5 72 0.0 3.2 0.00 0.28 0.00 95 1017.1
20260508092052 5 42 0.0 4.8 0.00 0.28 0.00 95 1017.1
20260508091558 5 31 1.6 4.8 0.00 0.28 0.00 95 1017.0
20260508091048 5 76 0.0 3.2 0.00 0.28 0.00 95 1017.0
20260508090548 5 77 1.6 3.2 0.00 0.28 0.00 95 1017.0
20260508085546 6 38 0.0 3.2 0.00 0.28 0.00 95 1016.9
20260508085046 6 36 1.6 3.2 0.00 0.28 0.00 95 1016.8
20260508084546 6 79 0.0 1.6 0.00 0.28 0.00 95 1016.7
20260508084043 6 79 0.0 3.2 0.00 0.28 0.00 94 1016.7
20260508083543 6 91 0.0 1.6 0.00 0.28 0.00 94 1016.6
20260508083144 6 91 0.0 1.6 0.00 0.28 0.00 94 1016.6
20260508082544 6 91 0.0 1.6 0.00 0.28 0.00 94 1016.7
20260508082043 6 91 0.0 3.2 0.00 0.28 0.00 94 1016.6
20260508081542 6 91 1.6 3.2 0.00 0.28 0.00 94 1016.5
20260508081042 6 108 0.0 1.6 0.00 0.28 0.00 94 1016.5
20260508080541 6 112 0.0 4.8 0.00 0.28 0.00 93 1016.3
20260508080040 6 63 0.0 4.8 0.00 0.28 0.00 94 1016.5
20260508075539 6 76 0.0 3.2 0.00 0.28 0.00 93 1016.4
20260508075039 6 76 1.6 3.2 0.00 0.28 0.00 93 1016.2
20260508074542 7 82 0.0 0.0 0.00 0.28 0.00 93 1016.2
20260508074037 7 359 0.0 0.0 0.00 0.28 0.00 92 1016.2
20260508073540 7 359 0.0 0.0 0.00 0.28 0.00 92 1016.1
20260508073138 7 359 0.0 0.0 0.00 0.28 0.00 91 1016.0
20260508072535 7 359 0.0 0.0 0.00 0.28 0.00 91 1015.9
20260508072035 7 359 0.0 0.0 0.00 0.28 0.00 91 1016.0
20260508071545 7 359 0.0 0.0 0.00 0.28 0.00 91 1015.9
20260508071035 7 359 0.0 0.0 0.00 0.28 0.00 90 1016.0
20260508070531 7 359 0.0 0.0 0.00 0.28 0.00 90 1015.7
20260508070030 8 347 0.0 0.0 0.00 0.28 0.00 89 1015.7
20260508065529 8 16 0.0 1.6 0.00 0.28 0.00 89 1015.7
20260508065027 8 14 0.0 3.2 0.00 0.28 0.00 88 1015.8
20260508064529 8 65 0.0 1.6 0.00 0.28 0.00 87 1015.6
20260508064025 8 304 0.0 1.6 0.00 0.28 0.00 86 1015.7
20260508063524 9 304 0.0 1.6 0.00 0.28 0.00 86 1015.5
20260508063124 9 293 0.0 3.2 0.00 0.28 0.00 84 1015.4
20260508062523 10 293 0.0 3.2 0.00 0.28 0.00 84 1015.4
20260508062022 10 280 0.0 3.2 0.00 0.28 0.00 83 1015.3
20260508061522 10 347 0.0 3.2 0.00 0.28 0.00 83 1015.3
20260508061021 11 242 0.0 6.4 0.00 0.28 0.00 81 1015.2
20260508060519 11 266 0.0 11.3 0.00 0.28 0.00 80 1015.2
20260508060017 11 225 4.8 11.3 0.00 0.28 0.00 79 1015.2
20260508055516 11 195 0.0 12.9 0.00 0.28 0.00 80 1015.1
20260508055015 11 259 6.4 11.3 0.00 0.28 0.00 78 1015.2
20260508054517 11 220 3.2 16.1 0.00 0.28 0.00 76 1015.3
20260508054017 12 264 4.8 16.1 0.00 0.28 0.00 74 1015.0
20260508053512 12 231 4.8 22.5 0.00 0.28 0.00 72 1015.0
20260508053122 12 267 3.2 19.3 0.00 0.28 0.00 74 1015.0
20260508052514 12 244 4.8 19.3 0.00 0.28 0.00 74 1014.9
20260508052011 12 162 0.0 14.5 0.00 0.28 0.00 74 1014.9
20260508051512 12 278 4.8 14.5 0.00 0.28 0.00 73 1014.9
20260508051011 12 233 3.2 12.9 0.00 0.28 0.00 74 1014.9
20260508050513 12 234 3.2 12.9 0.00 0.28 0.00 74 1014.9
20260508050011 12 203 3.2 16.1 0.00 0.28 0.00 75 1014.9
20260508045513 12 158 0.0 14.5 0.00 0.28 0.00 76 1014.8
20260508045009 12 205 3.2 14.5 0.00 0.28 0.00 75 1014.8
20260508044509 12 278 8.0 14.5 0.00 0.28 0.00 73 1014.7
20260508044007 12 263 0.0 17.7 0.00 0.28 0.00 73 1014.7
20260508043507 12 260 4.8 17.7 0.00 0.28 0.00 72 1014.7
20260508043106 12 302 6.4 11.3 0.00 0.28 0.00 72 1014.8
20260508042505 12 280 6.4 12.9 0.00 0.28 0.00 73 1014.8
20260508042004 12 276 3.2 12.9 0.00 0.28 0.00 73 1014.7
20260508041503 12 307 3.2 12.9 0.00 0.28 0.00 75 1014.8
20260508041002 12 250 6.4 16.1 0.00 0.28 0.00 75 1014.7
20260508040504 12 233 1.6 20.9 0.00 0.30 0.28 74 1014.8
20260508040001 12 283 6.4 20.9 0.00 0.30 0.28 75 1014.8
20260508035501 13 230 9.7 32.2 0.00 0.30 0.28 74 1014.7
20260508035100 13 53 16.1 32.2 0.00 0.30 0.28 72 1014.8
20260508034604 12 108 8.0 25.7 0.00 0.30 0.28 73 1014.9
20260508034104 12 120 12.9 45.1 0.00 0.30 0.28 74 1014.7
20260508033558 13 224 6.4 45.1 0.00 0.30 0.28 74 1014.7
20260508033058 12 266 12.9 24.1 0.00 0.30 0.28 75 1014.8
20260508032559 12 217 9.7 24.1 0.00 0.30 0.28 75 1014.8
20260508032101 12 255 3.2 24.1 0.00 0.30 0.28 74 1014.8
20260508031600 12 184 8.0 22.5 0.00 0.30 0.28 74 1014.9
20260508031058 12 243 6.4 30.6 0.00 0.30 0.28 74 1014.9
20260508030557 12 226 9.7 30.6 0.00 0.33 0.28 74 1014.8
20260508030057 13 257 3.2 27.4 0.00 0.33 0.28 73 1014.9
20260508025555 13 331 9.7 29.0 0.00 0.33 0.28 73 1014.6
20260508025058 12 253 8.0 20.9 0.00 0.33 0.28 73 1014.7
20260508024605 12 275 6.4 22.5 0.00 0.33 0.28 73 1014.6
20260508024055 12 255 8.0 22.5 0.00 0.33 0.28 74 1014.4
20260508023553 12 221 3.2 16.1 0.00 0.33 0.28 74 1014.3
20260508023053 12 192 6.4 32.2 0.00 0.33 0.28 74 1014.2
20260508022555 12 186 6.4 32.2 0.00 0.33 0.28 74 1014.2
20260508022052 12 266 9.7 19.3 0.00 0.33 0.28 76 1014.1
20260508021552 12 201 1.6 12.9 0.00 0.33 0.28 77 1014.2
20260508021053 12 216 3.2 12.9 0.00 0.33 0.28 76 1014.2
20260508020551 12 223 1.6 14.5 0.00 0.41 0.28 75 1014.3
20260508020053 12 224 4.8 17.7 0.00 0.41 0.28 77 1014.2
20260508015551 12 269 3.2 17.7 0.00 0.41 0.28 74 1014.2
20260508015051 12 233 3.2 20.9 0.00 0.41 0.28 75 1013.9
20260508014551 12 214 3.2 9.7 0.00 0.41 0.28 77 1013.8
20260508014053 12 117 1.6 9.7 0.00 0.41 0.28 77 1013.5
20260508013549 12 201 1.6 8.0 0.00 0.41 0.28 77 1013.5
20260508013051 12 229 8.0 20.9 0.00 0.41 0.28 76 1013.5
20260508012551 12 233 6.4 20.9 0.00 0.41 0.28 76 1013.5
20260508012049 12 221 6.4 20.9 0.00 0.41 0.28 76 1013.5
20260508011555 12 233 6.4 19.3 0.00 0.41 0.28 77 1013.3
20260508011047 12 128 6.4 30.6 0.00 0.41 0.28 76 1013.2
20260508010548 12 212 8.0 19.3 0.00 0.56 0.28 76 1013.3
20260508010048 12 184 9.7 24.1 0.00 0.56 0.28 75 1013.3
20260508005549 12 238 9.7 24.1 0.00 0.56 0.28 75 1013.4
20260508005045 12 298 9.7 25.7 0.00 0.56 0.28 75 1013.3
20260508004544 13 326 6.4 25.7 0.00 0.56 0.28 74 1013.3
20260508004043 13 226 4.8 19.3 0.00 0.56 0.28 72 1013.2
20260508003541 13 274 6.4 27.4 0.00 0.56 0.28 72 1012.9
20260508003042 13 311 6.4 20.9 0.00 0.56 0.28 70 1012.5
20260508002545 13 233 6.4 20.9 0.00 0.56 0.28 70 1012.4
20260508002043 13 161 8.0 17.7 0.00 0.56 0.28 69 1012.5
20260508001545 13 65 3.2 25.7 0.00 0.56 0.28 69 1012.6
20260508001042 13 259 11.3 25.7 0.00 0.56 0.28 70 1012.5
20260508000541 13 203 4.8 17.7 0.00 0.71 0.28 70 1012.5
20260508000041 13 274 6.4 30.6 0.00 0.71 0.28 70 1012.7
20260507235541 13 223 8.0 27.4 0.00 0.71 0.28 70 1012.6
20260507235045 13 260 14.5 29.0 0.00 0.71 0.28 70 1013.0
20260507234541 13 230 6.4 29.0 0.00 0.71 0.28 71 1013.0
20260507234039 13 212 8.0 29.0 0.00 0.71 0.28 70 1013.2
20260507233539 13 251 12.9 33.8 0.00 0.71 0.28 69 1013.1
20260507233054 14 262 11.3 30.6 0.00 0.71 0.28 68 1013.2
20260507232535 14 257 12.9 30.6 0.00 0.71 0.28 67 1013.4
20260507232034 14 274 12.9 22.5 0.00 0.71 0.28 66 1013.3
20260507231538 14 250 9.7 33.8 0.00 0.71 0.28 67 1013.1
20260507231034 15 283 12.9 33.8 0.00 0.71 0.28 66 1013.1
20260507230532 15 226 8.0 27.4 0.00 0.71 0.28 66 1013.1
20260507230033 15 216 11.3 27.4 0.00 0.71 0.28 66 1013.1
20260507225532 15 274 16.1 27.4 0.00 0.71 0.28 66 1013.1
20260507225033 15 257 11.3 35.4 0.00 0.71 0.28 67 1012.9
20260507224531 15 267 4.8 27.4 0.00 0.71 0.28 69 1012.8
20260507224034 15 278 6.4 25.7 0.00 0.71 0.28 69 1012.8
20260507223534 15 212 9.7 37.0 0.00 0.71 0.28 69 1012.5
20260507223030 15 219 14.5 38.6 0.00 0.71 0.28 68 1012.4
20260507222531 15 197 17.7 38.6 0.00 0.71 0.28 68 1012.3
20260507222029 15 268 12.9 29.0 0.00 0.71 0.28 68 1012.5
20260507221534 15 202 14.5 41.8 0.00 0.71 0.28 68 1012.3
20260507221028 15 206 12.9 43.5 0.00 0.71 0.28 69 1012.2
20260507220531 16 254 8.0 24.1 0.00 0.71 0.28 67 1012.1
20260507220029 16 220 12.9 22.5 0.00 0.71 0.28 68 1011.9
20260507215529 16 292 8.0 29.0 0.00 0.71 0.28 68 1011.8
20260507215027 17 273 9.7 32.2 0.00 0.71 0.28 66 1011.9
20260507214526 17 255 8.0 32.2 0.00 0.71 0.28 68 1011.6
20260507214028 17 16 8.0 20.9 0.00 0.71 0.28 67 1011.5
20260507213526 17 245 6.4 27.4 0.00 0.71 0.28 68 1011.5
20260507213031 17 141 16.1 30.6 0.00 0.71 0.28 65 1011.3
20260507212525 18 333 17.7 30.6 0.00 0.71 0.28 64 1011.4
20260507212025 18 228 8.0 16.1 0.00 0.71 0.28 66 1011.2
20260507211525 18 291 1.6 17.7 0.00 0.71 0.28 66 1011.1
20260507211027 18 269 8.0 25.7 0.00 0.71 0.28 66 1011.0
20260507210524 18 249 4.8 25.7 0.00 0.71 0.28 65 1011.0
20260507210024 18 359 4.8 17.7 0.00 0.71 0.28 64 1011.0
20260507205524 19 20 3.2 20.9 0.00 0.71 0.28 64 1011.0
20260507205024 18 136 4.8 20.9 0.00 0.71 0.28 66 1010.8
20260507204523 18 242 9.7 19.3 0.00 0.71 0.28 64 1010.6
20260507204023 18 169 4.8 19.3 0.00 0.71 0.28 65 1010.7
20260507203523 19 335 8.0 20.9 0.00 0.71 0.28 64 1010.6
20260507203023 20 265 1.6 25.7 0.00 0.71 0.28 65 1010.4
20260507202523 19 239 3.2 25.7 0.00 0.71 0.28 66 1010.5
20260507202023 19 323 6.4 20.9 0.00 0.71 0.28 65 1010.5
20260507201523 20 16 11.3 20.9 0.00 0.71 0.28 64 1010.4
20260507201024 20 254 8.0 25.7 0.00 0.71 0.28 64 1010.3
20260507200522 20 288 8.0 25.7 0.00 0.71 0.28 66 1010.2
20260507200022 20 124 8.0 20.9 0.00 0.71 0.28 64 1009.9
20260507195522 20 34 8.0 20.9 0.00 0.71 0.28 65 1010.1
20260507195022 20 185 8.0 22.5 0.00 0.71 0.28 65 1010.4